Weather in Marianivka

Ukraine / Zaporizhia Region     47°56′28″N   35°52′16″E
temp.,
°C
wind,
m/s
gust,
m/s
humid.,
%
clouds,
%
prec.,
mm/h
press.,
hPa
HPBL,
m
2 march, tue
tue223:000nw33807 0.0 102975
02:000nw337946 0.0 102977
05:00−1wnw348643 0.0 1028104
08:00+1w587644 0.0 1028538
11:00+4wsw796465 0.0 1025834
14:00+5wsw8116483 0.0 1023918
17:00+4wsw71474100 0.0 1020838
20:00+3wnw6128489 0.0 1019788
3 march, wed
wed323:00+1wnw6119598 0.1 1018634
02:00+1nw6129599 0.4 1019767
05:00+1nnw71282100 0.1 1020795
08:00+1nnw7107887 0.1 1023723
11:00+4nnw796133 0.0 10231223
14:00+5nw7105151 0.0 10241518
17:00+4nw48551 0.0 1024440
20:00+1wnw36691 0.0 1026136
4 march, thu
thu423:000w35820 0.0 1025100
02:000wsw46790 0.0 1025143
05:000sw49840 0.0 1023220
08:00+2sw610710 0.0 1022460
11:00+6sw811550 0.0 1019940
14:00+8sw912550 0.0 10171087
17:00+7sw8147210 0.0 1014733
20:00+5sw9168034 0.0 1014686
5 march, fri
fri523:00+3sw8168674 0.0 1013559
02:00+2sw8159178 0.0 1013455
05:00+2sw7129478 0.0 1013391
08:00+3sw699389 0.0 1013362
11:00+6sw6883100 0.0 1013451
14:00+9sw61074100 0.0 1011816
17:00+8sw4107699 0.0 1010349
20:00+6ssw5108490 0.0 1011288
6 march, sat
sat623:00+5sw51092100 0.0 1011288
02:00+4nnw3596100 0.0 1012235
05:00+3nnw6996100 0.4 1013388
08:00+1n6984100 0.5 1015671
11:00+3n6762100 0.0 1016969
14:00+3n6847100 0.0 10171425
17:00+2nnw6853100 0.0 10181285
20:00−1nnw71157100 0.0 1021799